SITRO-AIS 11 (SHEFFER)

Last updated on Sun Dec 14 2025 00:03:50 GMT+0000 (Coordinated Universal Time)

1 57208U 23091AU 25347.30910066 .00027889 00000+0 92675-3 0 9998 2 57208 97.5365 49.5777 0008086 18.4095 341.7437 15.31131636136275
UTC large
Height (km)
Speed (km/s)
/
Latitude / Longitude
Inclination (degrees)
Orbital Period (minutes)
Azimuth
Elevation
Range (km)
Doppler Factor

Next 0 passes for location: London (51.5072 / 0.1276)

Sorry there are no passes over London.